STARLINK-11629, 63104

Orbit data source: Space-Track

STARLINK-11629, 63104 is a payload satellite owned by SpaceX/Seattle (US) in LEO that was launched on Thu, 27 Feb 2025 UTC via an FALCON 9 launch vehicle from the Air Force Eastern Test Range (AFETR). Payload-class satellites include a variety of spacecraft equipped with specific instruments for various scientific and technological missions. These include communications satellites like Starlink; space stations such as the ISS; scientific satellites like the Hubble; Earth observation satellites from companies like Planet Labs, Umbra, and HawkEye 360; GPS; miniature CubeSats for education and research; and military/defense satellites.

Loading next visibility...
Identifier
63104, 2025-039A
Orbit
LEO
Country
Flag of USUS
Related business
Manufacturer
SpaceX/Seattle
Mission
Operational Commercial Communications
Bus & Motor
STARLINK V2MD, Unknown motor
Mass
960 kg wet, ~910 kg dry
Launch date (UTC)
2025-02-27 (1 year ago)
Launch vehicle
FALCON 9
Launch site
Air Force Eastern Test Range (AFETR)
Object type
Payload
Rocket body
Debris
Shape & HBR
Box + 2 Pan, 18.1 m
Radar Cross Section
36.964 m², Large (>1 m²)

Expand to show TLE details & history
Last TLE update: 10 hours ago

TLE from 10 hours ago
0 STARLINK-11629
1 63104U 25039A   26104.45889321  .00167698  00000-0  12810-2 0  9997
2 63104  42.9995  21.0079 0002111 286.4557  73.6079 15.70898206 65240
Epoch: 2026-04-14T11:00Z
TLE epoch observation values (Epoch: 2026-04-14T11:00:48.373Z)
Latitude
0.00002°
Longitude
13.17152°
Altitude
355.699 km
Speed
7.698 km/s
True Right ascension
01h 24m 01s
True Declination
0° 00' 00"
Sunlit
Object was in daylight at epoch
Visualization orbit readout
Latitude
Unknown
Longitude
Unknown
Altitude
Unknown
Speed
Unknown
Apparent Right ascension
Unknown
Apparent Declination
Unknown
Sunlit
N/A
Visualization observer readout
Local Sidereal Time
03:38:42
Azimuth
Unknown
Elevation
Unknown
Doppler factor
Unknown
Orbital elements
Apogee altitude
359.732 km
Perigee altitude
356.888 km
Semi-major axis
6,736.447 km
Eccentricity
0.00021
Inclination
42.9995°
RAAN
21.0079°
Arg. of periapsis
286.4557°
True anomaly
73.63111°
Mean anomaly
73.6079°
Eccentric anomaly
73.6195°
Mean motion
3.92552 °/min
Orbital period
91.71 mins
BSTAR
0.001281
Loading maneuver chart data...
Computing Atmospheric mass density...
Loading historical data...
Loading historical data...
Loading historical data...
Loading historical data...
Loading historical data...
Loading historical data...
Loading historical data...

Documentation

Showing up to 5 results
|